Powrót do katalogu

USA 40 R/B DEB

AktywnyHEO
NORAD 23360·DEBRIS·🇺🇸 United States

Wystrzelony Aug 8, 1989 z Cape Canaveral Space Force Station

Loading…

Następne Przeloty (najbliższe 24 godziny)

TLE

ŚwieżeSource: Space-Track

Epoka: Sep 12, 2026, 13:06 UTC

1 23360U 89061AG  26255.54624402  .00003236  00000-0  28584-2 0  9998
2 23360  56.9874 318.1880 3043846 210.3154 128.0373  8.77122610 78236

Śledź USA 40 R/B DEB w czasie rzeczywistym z AllMySat

Download on the App Store